Simultaneous Nadir Overpasses (SNOs) Predictions

Prediction of SNOs between AQUA and METOP-B Satellite Orbit:

Table of predicted SNOs for the next 14.0 days since TLE Epoch: 4/2/2016
Index Date (AQUA) Time (AQUA) Lat,Lon (AQUA) SZA (AQUA ) Date (METOP-B) Time (METOP-B) Lat,Lon (METOP-B) SZA (METOP-B ) Distance(km) Time Diff (sec)
1 04/03/2016 09:02:21 -73.84,-141.31 111.68 04/03/2016 09:01:34 -73.83,-141.37 111.68 1.88 47
2 04/03/2016 09:51:50 73.92, 26.14 68.40 04/03/2016 09:52:12 73.90, 26.15 68.38 2.06 22
3 04/06/2016 04:36:39 -73.84, -74.88 112.76 04/06/2016 04:35:57 -73.84, -74.94 112.75 1.74 42
4 04/06/2016 05:26:08 73.93, 92.56 67.33 04/06/2016 05:26:35 73.91, 92.56 67.31 1.99 27
5 04/09/2016 00:10:57 -73.85, -8.49 113.81 04/09/2016 00:10:20 -73.84, -8.52 113.80 1.28 37
6 04/09/201
